FENGYUN 1C DEB, 37693

Orbit data source: Space-Track

FENGYUN 1C DEB, 37693 is space debris in SSO originally from a launch on Mon, 10 May 1999 UTC launched from the Taiyaun Space Center, China (TSC). Fengyun 1C debris stems from the Chinese weather satellite Fengyun-1C, which was intentionally destroyed by a Chinese anti-satellite missile in 2007. This event dramatically increased the amount of space debris, with thousands of trackable fragments posing hazards to satellites and human spaceflight. The Fengyun 1C debris cloud has become a focal point in discussions about space sustainability and the need for international regulations to prevent the creation of new debris.

Loading next visibility...
Identifier
37693, 1999-025ELJ
Orbit
SSO
Country
Flag of CNCN / PRC
Related business
Manufacturer
Unknown
Mission
Spacecraft
Bus & Motor
Unknown
Mass
Unknown
Launch date (UTC)
1999-05-10 (27 years ago)
Launch vehicle
Unknown
Launch site
Taiyaun Space Center, China (TSC)
Object type
Payload
Rocket body
Debris
Shape & HBR
Unknown shape, 0.1 m
Radar Cross Section
Small (<0.1 m²)

Expand to show TLE details & history
Last TLE update: 1 week ago

TLE from 1 week ago
0 FENGYUN 1C DEB
1 37693U 99025ELJ 26200.46669653  .00000416  00000-0  25863-3 0  9996
2 37693  98.6997 197.5941 0071028 175.7458 337.3669 14.08929519652287
Epoch: 2026-07-19T11:12Z
TLE epoch observation values (Epoch: 2026-07-19T11:12:02.580Z)
Latitude
26.90337°
Longitude
-83.25204°
Altitude
818.878 km
Speed
7.47 km/s
True Right ascension
01h 28m 05s
True Declination
26° 45' 58"
Sunlit
Object was in daylight at epoch
Visualization orbit readout
Latitude
Unknown
Longitude
Unknown
Altitude
Unknown
Speed
Unknown
Apparent Right ascension
Unknown
Apparent Declination
Unknown
Sunlit
N/A
Visualization observer readout
Local Sidereal Time
01:35:42
Azimuth
Unknown
Elevation
Unknown
Doppler factor
Unknown
Orbital elements
Apogee altitude
911.622 km
Perigee altitude
808.797 km
Semi-major axis
7,238.347 km
Eccentricity
0.0071
Inclination
98.6997°
RAAN
197.5941°
Arg. of periapsis
175.7458°
True anomaly
337.05109°
Mean anomaly
337.3669°
Eccentric anomaly
337.20926°
Mean motion
3.52439 °/min
Orbital period
102.15 mins
BSTAR
0.00025863
Loading maneuver chart data...
Computing Atmospheric mass density...

Documentation

Showing up to 5 results
|